{"data":{"norad_id":64158,"epoch":"2026-09-20T13:37:56.445024Z","epoch_age_seconds":134502,"freshness":"FRESH","line1":"1 64158U 25112N   26263.56801441  .00014403  00000+0  44724-3 0  9998","line2":"2 64158  97.2840 310.5611 0000376 111.3546 248.7737 15.33470548 72759","mean_motion":15.33470548,"eccentricity":3.76e-5,"inclination_deg":97.284,"raan_deg":310.5611,"arg_perigee_deg":111.3546,"mean_anomaly_deg":248.7737,"bstar":0.00044724,"rev_number":7275,"period_min":93.904640156154,"perigee_km":465.20984314349,"apogee_km":465.72448217652,"semimajor_km":6843.60416266,"source":"CELESTRAK","updated_at":"2026-09-21T09:00:35.239848Z"}}